This is the latest recevied weather packets stored in our database for station/object IZ3MEZ-13. If no packets are shown the sender has not sent any weather packets the latest 10 day(s).
| Time | Temp. | Humidity | Pressure | Rain* | Wind** | Luminosity | Snow |
|---|---|---|---|---|---|---|---|
| 1777710916 | 18.33° C | 52% | 1027.1 hPa | 0 mm | - | 46 W/m² | - |
| 1777710331 | 18.33° C | 52% | 1027.1 hPa | 0 mm | - | 182 W/m² | - |
| 1777709722 | 17.78° C | 51% | 1027.2 hPa | 0 mm | - | 55 W/m² | - |
| 1777709120 | 17.22° C | 53% | 1027.3 hPa | 0 mm | - | 62 W/m² | - |
| 1777708517 | 17.22° C | 54% | 1027.4 hPa | 0 mm | - | 44 W/m² | - |
| 1777707920 | 16.67° C | 56% | 1027.4 hPa | 0 mm | - | 68 W/m² | - |
| 1777707329 | 16.11° C | 57% | 1027.5 hPa | 0 mm | - | 54 W/m² | - |
| 1777706719 | 15.56° C | 59% | 1027.4 hPa | 0 mm | - | 41 W/m² | - |
| 1777706116 | 15.56° C | 59% | 1027.6 hPa | 0 mm | - | 39 W/m² | - |
| 1777705517 | 15° C | 60% | 1027.6 hPa | 0 mm | - | 41 W/m² | - |
| 1777704917 | 14.44° C | 60% | 1027.6 hPa | 0 mm | - | 61 W/m² | - |
| 1777704324 | 13.89° C | 63% | 1027.7 hPa | 0 mm | - | 47 W/m² | - |
| 1777703721 | 13.33° C | 64% | 1027.7 hPa | 0 mm | - | 36 W/m² | - |
| 1777703122 | 12.78° C | 65% | 1027.7 hPa | 0 mm | - | 34 W/m² | - |
| 1777702523 | 12.22° C | 66% | 1027.7 hPa | 0 mm | - | 31 W/m² | - |
| 1777701917 | 11.67° C | 67% | 1027.7 hPa | 0 mm | - | 30 W/m² | - |
| 1777701328 | 11.67° C | 68% | 1027.7 hPa | 0 mm | - | 28 W/m² | - |
| 1777700721 | 11.11° C | 70% | 1027.6 hPa | 0 mm | - | 26 W/m² | - |
| 1777700118 | 10.56° C | 71% | 1027.8 hPa | 0 mm | - | 24 W/m² | - |
| 1777699520 | 9.44° C | 73% | 1027.7 hPa | 0 mm | - | 21 W/m² | - |
| 1777698923 | 9.44° C | 74% | 1027.7 hPa | 0 mm | - | 18 W/m² | - |
| 1777698320 | 8.89° C | 74% | 1027.7 hPa | 0 mm | - | 16 W/m² | - |
| 1777697716 | 8.89° C | 75% | 1027.7 hPa | 0 mm | - | 13 W/m² | - |
| 1777697123 | 8.33° C | 76% | 1027.7 hPa | 0 mm | - | 10 W/m² | - |
| 1777696516 | 7.78° C | 77% | 1027.6 hPa | 0 mm | - | 7 W/m² | - |
* Rain latest hour (hover to see other rain measurements)
** Current wind speed in m/s (hover to see current wind gust speed)